Wind_Speed
8 10 3 17 8 14 21 26 25 25 26 14 8 9 9 10 6 13 8 7 11 9 11 11 12 13 14 16 18 21 24 25 25 25 24 23 22 20 19 18 16 14 11 9 7 7 5 4 4
9 18 27 15 12 19 10 18 28 22 24 19 14 12 12 19 15 19 10 7 8 12 12 12 12 13 14 16 18 21 22 23 24 24 23 22 20 18 17 15 13 11 10 8 8 9 9 8 8
4 11 9 5 12 30 17 20 20 18 12 5 9 16 22 20 17 19 11 7 5 10 11 13 12 13 14 16 17 20 21 22 23 23 22 20 18 17 14 13 12 11 11 12 12 15 15 14 13
15 10 7 19 27 23 24 20 15 17 11 4 7 19 20 16 16 19 9 9 6 8 11 14 14 13 15 17 16 18 20 21 22 23 21 20 18 15 12 12 11 12 12 14 14 17 17 17 16
5 8 6 22 20 16 15 15 13 19 10 9 5 26 23 21 16 11 12 12 11 7 11 14 14 14 16 17 16 18 19 20 20 21 19 17 16 13 12 11 12 14 14 14 15 16 17 17 17
8 11 11 20 17 19 19 18 15 9 8 13 15 27 25 18 13 6 10 12 11 12 12 13 14 14 16 15 15 17 18 19 19 20 17 15 13 12 12 11 14 14 15 14 13 15 16 18 17
7 5 7 18 16 18 16 15 12 11 13 9 7 21 21 14 8 3 15 11 13 13 11 11 14 13 15 15 10 16 18 20 20 20 16 15 13 12 12 13 12 14 15 15 12 14 15 18 15
5 16 13 18 18 16 16 15 12 10 7 10 6 16 22 10 8 12 13 9 10 9 10 10 12 13 15 15 14 10 18 19 21 20 16 13 11 12 14 13 12 13 14 14 12 11 13 15 13
5 6 10 15 18 16 12 16 18 18 23 16 9 9 15 16 9 13 14 11 11 8 7 9 10 14 14 16 11 11 11 17 22 19 16 13 11 15 12 13 13 12 13 11 9 8 9 11 9
12 3 14 8 18 14 19 20 19 13 25 19 15 12 23 12 5 7 11 11 11 9 6 6 10 12 13 13 18 13 12 18 20 14 13 11 15 15 16 13 13 11 10 10 8 6 5 4 6
6 15 17 16 11 15 16 16 9 8 8 7 7 21 20 17 14 5 6 12 9 12 12 9 9 13 13 17 18 18 12 20 19 15 12 15 16 13 14 15 11 9 9 8 4 4 4 2 1
12 17 16 14 9 18 12 13 14 11 11 11 23 21 19 17 10 6 9 11 2 6 8 8 7 12 16 16 19 15 17 23 20 17 13 19 14 13 12 14 13 9 6 6 2 1 2 1 4
18 9 8 13 12 13 12 11 18 14 11 17 19 18 20 17 10 1 11 8 11 9 10 11 8 12 13 14 14 15 20 23 20 18 13 18 15 14 15 14 10 8 8 6 4 1 4 1 5
7 10 17 13 14 13 13 21 14 14 13 16 17 11 16 17 12 5 4 10 12 10 11 15 12 13 12 15 13 14 19 18 19 17 12 20 15 11 15 16 13 10 5 2 1 3 6 4 4
15 14 13 12 17 16 16 16 11 17 18 16 17 16 14 8 10 4 6 10 9 8 5 17 14 10 10 16 14 15 19 18 21 17 16 21 17 13 10 11 11 10 3 4 4 4 6 2 11
17 16 15 12 16 15 16 18 12 15 8 16 18 17 11 9 7 2 1 6 5 7 8 11 12 6 9 13 13 13 15 14 19 17 18 19 14 15 12 9 8 4 8 7 2 6 9 4 9
15 14 11 12 13 17 15 18 13 14 9 10 8 7 7 8 2 6 3 4 8 9 5 14 13 17 13 14 12 13 19 15 13 16 23 24 19 16 12 12 8 11 6 5 4 4 7 8 8
12 28 21 17 20 15 18 19 18 17 14 11 6 6 9 8 5 9 4 8 3 9 2 12 14 22 24 18 13 13 19 19 13 17 22 23 15 14 14 9 5 8 2 1 2 3 3 6 6
18 24 26 20 13 17 19 16 22 19 17 14 11 12 8 11 13 6 10 7 2 5 8 11 8 16 13 16 16 15 12 12 14 20 23 17 12 9 8 8 6 3 4 4 2 0 3 5 8
22 28 35 16 9 20 23 18 16 19 18 12 13 12 10 10 5 4 7 5 4 3 4 10 9 11 9 8 8 14 16 20 20 23 17 9 8 9 8 7 4 3 2 2 1 1 3 7 10
20 14 22 29 12 18 21 18 20 19 19 16 14 10 15 6 6 9 7 4 3 3 3 7 8 12 15 16 13 11 15 17 15 17 9 9 8 7 7 7 5 3 1 1 1 3 5 6 10
24 5 19 15 15 14 20 15 20 18 23 19 19 15 12 0 13 10 5 5 1 3 5 7 12 16 15 19 19 17 16 11 7 9 8 11 11 9 7 6 2 2 2 2 4 6 8 7 7
20 18 26 18 12 16 14 14 22 15 21 22 24 14 9 9 13 14 10 2 6 4 9 8 11 14 13 11 12 11 11 15 12 10 11 9 6 6 1 0 3 4 4 5 6 8 11 10 6
2 20 14 22 12 10 3 3 10 23 21 19 17 23 12 12 15 10 10 7 3 2 9 10 12 13 12 10 7 8 8 10 9 8 9 4 4 3 4 4 3 5 7 6 7 9 11 12 11
9 25 8 7 2 7 12 6 8 23 22 21 22 25 10 16 14 9 9 10 3 4 10 12 11 12 11 11 12 10 9 9 8 7 6 2 1 2 6 7 9 5 7 9 4 9 12 11 13
9 9 7 7 6 7 4 8 16 29 21 20 26 20 19 19 11 7 12 12 15 14 15 15 14 13 12 11 10 9 7 5 5 4 4 1 6 7 5 9 19 16 17 9 9 10 13 15 16
8 20 5 13 8 3 7 19 16 29 29 25 24 24 21 24 16 13 9 14 13 15 14 13 12 11 9 8 8 6 5 3 2 2 4 5 8 13 10 12 13 15 15 16 16 16 17 17 17
8 15 13 11 4 4 11 17 19 33 36 27 28 26 31 26 18 13 8 8 11 12 14 13 10 9 6 5 6 5 5 4 3 4 7 6 7 9 11 13 16 17 17 17 17 17 16 15 13
19 27 15 16 15 8 5 16 27 36 41 30 32 30 30 29 21 17 12 10 12 10 10 10 9 6 4 5 6 6 1 3 5 4 5 9 13 15 15 15 16 16 16 15 14 12 11 10 11
14 20 22 16 11 16 17 16 25 35 34 35 27 33 32 31 21 19 9 6 6 8 6 7 7 6 6 3 5 1 2 5 10 11 11 13 15 15 15 15 14 12 10 10 9 9 8 8 8
Wind_Direction
75 40 102 126 85 63 76 76 89 88 76 79 159 132 122 128 110 109 98 122 109 120 125 120 118 119 126 130 126 130 129 131 130 130 129 129 129 130 128 124 124 119 116 117 116 109 101 100 114
101 76 56 69 99 95 96 90 95 100 100 93 72 92 128 92 92 94 80 55 87 145 134 130 125 129 131 131 132 137 138 137 133 135 133 131 133 133 129 127 121 116 113 108 98 89 86 88 100
126 64 34 61 115 98 107 106 99 102 107 108 45 99 98 95 91 94 92 98 98 108 139 139 137 134 134 138 140 145 146 142 140 138 137 135 135 135 129 125 119 116 102 100 96 93 89 86 89
111 68 57 69 79 97 101 105 110 124 109 54 31 82 90 83 83 84 75 62 68 116 147 145 141 139 142 142 147 150 151 150 146 144 141 141 139 135 129 126 119 109 105 98 94 90 87 83 83
35 22 15 87 77 82 85 89 130 116 106 75 82 96 76 58 47 55 59 68 72 97 138 147 144 144 146 150 148 153 152 155 153 149 144 141 137 134 129 124 116 110 102 95 93 92 88 83 75
15 19 74 83 81 96 99 100 97 90 78 107 96 107 101 95 69 26 75 71 83 94 122 139 149 149 153 155 150 159 158 159 158 154 149 141 134 129 126 122 117 110 105 98 96 92 87 80 74
5 341 60 99 86 97 101 99 111 113 115 102 95 108 108 122 154 126 66 78 71 89 106 130 150 157 162 162 164 164 168 163 166 159 154 145 135 126 126 120 113 111 111 102 96 95 93 86 82
38 48 91 113 107 100 116 112 124 99 119 115 61 119 129 134 62 53 52 61 72 84 110 131 151 162 167 166 168 175 171 165 166 160 160 149 139 126 125 117 113 115 111 104 103 102 96 91 81
121 136 102 122 127 116 113 111 108 109 138 133 155 115 109 83 47 27 45 63 60 63 104 141 158 165 171 165 161 188 167 168 167 161 158 144 141 130 122 119 118 121 112 112 110 114 107 92 59
199 148 116 131 120 113 122 118 133 142 136 141 153 113 90 108 86 9 358 32 67 66 81 136 166 167 166 172 160 170 188 169 169 165 160 159 140 143 134 128 125 124 113 112 123 126 132 120 81
140 124 119 114 135 130 129 134 163 159 127 170 158 110 107 112 147 256 314 350 92 72 57 80 152 170 176 172 163 157 174 167 168 164 171 166 166 150 148 135 126 128 119 119 125 139 126 78 124
174 133 127 128 141 145 158 123 123 121 114 101 105 102 100 155 180 248 319 337 31 87 66 58 139 173 158 156 178 188 170 169 174 169 174 164 167 162 152 145 142 146 131 127 129 285 291 321 355
150 133 110 121 127 151 160 128 130 121 120 113 109 138 142 137 136 285 308 346 69 84 68 41 118 147 161 168 183 179 170 175 173 177 190 188 161 166 163 156 154 159 156 152 182 325 314 310 264
146 128 149 155 134 150 122 132 131 130 119 136 144 152 154 179 199 226 249 329 48 61 69 51 108 121 135 166 140 155 180 177 177 175 184 186 174 182 177 167 161 145 130 102 267 271 281 289 271
142 141 142 141 151 153 144 149 148 147 152 152 143 161 163 182 181 220 244 281 5 48 100 84 104 125 136 148 136 139 149 175 188 187 176 173 182 191 191 179 162 128 147 243 287 301 269 276 310
146 156 160 170 155 170 167 157 159 156 148 153 143 162 197 220 242 182 7 261 14 13 126 106 95 114 172 163 164 160 147 147 167 191 181 177 166 179 175 163 123 192 203 178 175 307 300 313 321
140 167 181 162 202 173 187 164 177 183 199 169 159 204 221 222 180 113 154 45 64 19 76 105 85 70 107 158 157 165 178 156 172 154 175 177 178 176 184 178 203 198 210 249 9 305 357 322 318
204 208 227 212 186 200 180 172 178 203 209 207 182 172 204 215 164 126 85 70 43 38 56 80 95 104 105 105 120 144 162 172 183 173 172 165 174 167 180 195 230 246 195 225 50 13 341 340 311
225 204 212 201 199 195 179 177 170 191 200 193 194 214 230 312 165 48 154 62 71 47 90 106 123 128 96 82 78 91 156 163 157 149 154 160 163 190 194 194 204 202 235 171 144 50 6 3 4
175 183 211 221 230 214 181 170 173 186 210 223 208 217 213 266 347 256 141 99 63 37 94 141 90 159 131 97 105 92 105 118 114 147 133 143 164 168 170 170 172 157 163 158 154 38 1 355 344
185 221 247 253 284 188 171 167 177 197 200 212 213 197 190 249 206 172 154 97 19 95 122 111 121 123 116 110 101 104 121 138 129 124 168 167 158 150 155 138 140 154 149 81 257 308 324 323 327
175 246 177 246 294 168 185 184 186 198 206 209 205 195 217 15 165 166 139 139 339 61 116 123 122 117 102 119 121 108 115 132 140 132 147 143 129 131 144 160 165 268 296 304 297 304 308 321 324
230 214 179 185 184 310 165 157 186 187 203 202 199 204 223 242 168 165 194 90 94 76 114 110 111 123 148 134 124 125 131 144 149 147 135 129 126 72 332 247 273 265 271 288 305 316 318 322 318
108 169 147 105 276 296 226 121 178 191 195 188 209 202 199 187 171 155 203 203 72 135 118 116 111 118 134 150 145 125 135 125 136 136 122 77 96 75 94 247 251 289 284 285 295 309 304 312 311
228 160 123 78 269 245 286 255 194 201 199 207 198 196 168 176 172 174 170 184 146 136 130 115 110 112 122 128 130 134 131 128 134 131 150 129 241 56 259 268 239 227 286 274 293 307 303 317 311
76 38 143 151 188 287 257 236 233 196 196 194 207 193 177 169 156 124 111 112 106 128 116 116 117 116 116 116 115 117 117 124 140 110 116 174 262 241 310 296 344 358 324 327 336 314 311 311 307
191 333 133 107 123 253 239 255 249 197 195 186 188 172 174 169 153 144 133 118 122 124 120 114 113 113 116 118 116 106 96 57 39 320 275 283 311 348 326 319 313 316 319 316 311 306 304 303 302
239 231 125 115 118 348 274 279 223 190 185 172 185 177 177 167 154 154 166 158 143 127 125 123 121 117 115 120 109 87 72 55 296 270 298 314 317 307 307 306 309 306 304 305 310 312 311 307 310
178 187 156 132 139 168 285 249 198 185 178 175 177 173 173 173 167 160 174 156 154 138 124 126 130 133 138 162 136 98 108 205 345 192 326 311 310 310 311 313 314 313 311 312 312 316 315 316 313
177 203 198 160 166 159 199 259 213 179 176 178 173 180 177 174 168 168 163 186 155 134 138 139 142 161 186 171 69 84 239 313 324 341 315 307 310 312 316 316 313 313 320 326 332 331 323 318 321
Height
3164 3166 3160 3156 3165 3162 3161 3160 3162 3164 3164 3163 3162 3164 3165 3165 3166 3171 3170 3170 3174 3175 3176 3178 3179 3180 3181 3183 3184 3186 3188 3190 3192 3194 3197 3200 3201 3204 3206 3207 3209 3210 3211 3213 3213 3214 3214 3215 3216
3167 3165 3155 3154 3165 3163 3167 3164 3163 3166 3165 3165 3164 3165 3165 3167 3169 3168 3171 3171 3173 3175 3176 3179 3180 3182 3183 3184 3187 3188 3191 3193 3194 3197 3199 3202 3204 3206 3208 3209 3211 3213 3214 3215 3215 3215 3216 3216 3217
3170 3167 3168 3163 3165 3163 3165 3166 3166 3168 3167 3166 3166 3167 3167 3170 3173 3172 3173 3173 3174 3176 3177 3179 3181 3183 3184 3186 3189 3190 3193 3195 3197 3199 3202 3204 3206 3208 3210 3211 3213 3214 3215 3216 3217 3217 3217 3218 3218
3166 3168 3172 3171 3167 3166 3166 3167 3168 3169 3169 3168 3168 3169 3173 3174 3173 3174 3175 3174 3174 3176 3177 3179 3182 3183 3185 3187 3190 3193 3195 3197 3200 3201 3203 3205 3208 3210 3211 3213 3215 3216 3217 3218 3219 3219 3220 3220 3220
3174 3167 3168 3167 3166 3167 3166 3168 3168 3168 3170 3171 3170 3172 3173 3175 3174 3175 3176 3176 3176 3175 3177 3180 3182 3184 3186 3187 3190 3194 3197 3199 3202 3203 3206 3208 3210 3211 3213 3215 3216 3217 3219 3220 3221 3222 3222 3221 3222
3166 3167 3167 3165 3166 3167 3170 3171 3170 3170 3170 3172 3172 3174 3178 3180 3178 3176 3178 3179 3177 3178 3178 3181 3183 3185 3187 3188 3191 3195 3198 3201 3203 3205 3208 3210 3212 3212 3214 3216 3218 3219 3220 3222 3223 3223 3224 3224 3223
3167 3167 3168 3169 3170 3171 3172 3173 3173 3170 3171 3173 3174 3174 3181 3182 3180 3178 3179 3179 3179 3179 3180 3182 3183 3186 3188 3190 3193 3196 3198 3201 3204 3206 3209 3211 3213 3214 3215 3218 3219 3220 3222 3223 3226 3226 3225 3225 3225
3170 3170 3170 3172 3173 3175 3174 3175 3176 3175 3174 3174 3174 3178 3181 3182 3182 3182 3182 3180 3181 3180 3180 3182 3183 3186 3189 3191 3192 3197 3198 3200 3204 3207 3210 3213 3214 3216 3217 3219 3221 3223 3223 3224 3226 3227 3226 3227 3226
3174 3173 3173 3174 3175 3176 3176 3177 3179 3176 3178 3179 3178 3180 3181 3183 3181 3182 3184 3183 3182 3182 3182 3182 3183 3185 3188 3191 3193 3193 3193 3201 3205 3208 3211 3214 3217 3217 3220 3221 3223 3225 3225 3226 3228 3228 3228 3228 3228
3175 3175 3175 3175 3176 3178 3178 3179 3179 3178 3179 3179 3181 3185 3184 3186 3184 3183 3184 3185 3184 3183 3182 3182 3184 3186 3188 3190 3191 3194 3197 3202 3206 3209 3212 3215 3217 3218 3219 3222 3224 3226 3226 3227 3229 3229 3229 3229 3229
3175 3176 3175 3177 3178 3181 3180 3180 3180 3179 3181 3182 3184 3184 3187 3190 3189 3184 3185 3188 3186 3184 3184 3183 3184 3185 3187 3190 3193 3193 3198 3203 3207 3210 3213 3216 3217 3219 3221 3222 3226 3228 3227 3228 3230 3230 3229 3229 3229
3176 3175 3176 3179 3180 3181 3181 3182 3182 3182 3183 3183 3185 3187 3190 3191 3191 3188 3188 3189 3187 3187 3186 3185 3184 3185 3187 3190 3193 3196 3199 3203 3207 3210 3213 3216 3218 3220 3222 3223 3224 3227 3228 3229 3230 3230 3230 3228 3227
3172 3175 3177 3179 3181 3181 3182 3183 3184 3185 3186 3187 3188 3191 3193 3193 3191 3189 3188 3188 3189 3189 3188 3185 3184 3185 3187 3191 3193 3195 3199 3203 3206 3209 3212 3215 3218 3220 3222 3223 3225 3226 3228 3229 3230 3231 3229 3227 3227
3177 3178 3179 3179 3181 3181 3182 3186 3185 3188 3189 3190 3192 3192 3194 3193 3193 3191 3188 3188 3190 3190 3189 3187 3185 3187 3188 3191 3194 3196 3200 3203 3206 3209 3211 3214 3217 3220 3223 3222 3223 3224 3226 3228 3228 3228 3228 3226 3225
3178 3178 3179 3180 3182 3184 3182 3186 3187 3188 3191 3192 3192 3193 3193 3195 3196 3195 3192 3189 3190 3192 3191 3191 3190 3189 3190 3193 3195 3198 3201 3204 3206 3210 3212 3215 3218 3220 3222 3224 3225 3225 3226 3227 3228 3227 3226 3226 3225
3176 3179 3181 3181 3180 3183 3185 3186 3187 3189 3190 3192 3192 3195 3193 3195 3195 3197 3196 3192 3193 3193 3193 3191 3192 3191 3190 3192 3195 3198 3200 3202 3206 3208 3212 3215 3217 3220 3222 3225 3224 3225 3225 3226 3226 3226 3226 3225 3223
3175 3176 3177 3178 3179 3179 3182 3184 3187 3188 3190 3192 3193 3194 3194 3194 3195 3196 3196 3195 3193 3192 3194 3194 3192 3190 3189 3193 3195 3198 3200 3203 3205 3207 3211 3215 3218 3220 3222 3224 3224 3224 3224 3226 3225 3226 3224 3224 3223
3174 3172 3176 3176 3180 3182 3183 3182 3186 3187 3189 3191 3194 3193 3193 3195 3197 3195 3195 3196 3197 3195 3193 3195 3195 3194 3195 3196 3197 3198 3200 3203 3206 3208 3212 3215 3218 3220 3220 3222 3223 3224 3223 3223 3223 3223 3222 3222 3221
3176 3174 3175 3175 3178 3179 3184 3183 3185 3188 3190 3190 3191 3192 3193 3192 3186 3196 3192 3195 3198 3198 3199 3197 3195 3196 3197 3198 3199 3199 3201 3204 3206 3209 3214 3218 3219 3220 3221 3221 3221 3220 3221 3221 3221 3221 3220 3220 3219
3174 3176 3172 3175 3180 3182 3182 3181 3184 3187 3188 3189 3192 3192 3193 3190 3193 3194 3195 3196 3198 3200 3200 3200 3200 3199 3199 3202 3202 3204 3205 3206 3209 3209 3214 3216 3217 3219 3220 3221 3221 3221 3221 3221 3220 3220 3218 3218 3217
3174 3178 3184 3180 3180 3180 3183 3183 3182 3186 3188 3190 3193 3192 3192 3191 3191 3192 3195 3195 3196 3200 3200 3200 3201 3201 3201 3203 3204 3206 3208 3209 3212 3215 3215 3217 3219 3220 3221 3221 3222 3223 3223 3222 3221 3220 3219 3217 3214
3168 3172 3174 3169 3179 3178 3179 3182 3180 3182 3185 3187 3190 3191 3192 3194 3194 3192 3193 3197 3198 3200 3200 3201 3201 3201 3202 3203 3205 3208 3210 3211 3212 3215 3215 3218 3219 3221 3222 3222 3221 3223 3222 3222 3221 3221 3219 3217 3215
3162 3163 3170 3179 3175 3185 3174 3174 3176 3180 3183 3186 3189 3193 3195 3195 3193 3193 3197 3199 3201 3200 3201 3200 3200 3202 3204 3206 3208 3211 3212 3211 3211 3212 3215 3217 3218 3220 3219 3221 3222 3222 3220 3219 3218 3218 3218 3216 3214
3158 3170 3178 3179 3185 3181 3174 3173 3173 3176 3181 3183 3188 3192 3194 3193 3193 3196 3197 3199 3202 3202 3201 3201 3202 3203 3205 3207 3209 3210 3210 3210 3212 3214 3216 3217 3217 3219 3220 3219 3220 3220 3219 3216 3217 3216 3213 3213 3212
3162 3167 3173 3189 3193 3187 3176 3172 3170 3176 3180 3184 3185 3187 3190 3191 3193 3197 3198 3198 3203 3203 3203 3203 3203 3205 3207 3208 3210 3210 3211 3212 3215 3217 3218 3217 3215 3219 3219 3220 3216 3211 3215 3215 3210 3211 3210 3209 3209
3159 3163 3164 3179 3187 3182 3175 3169 3167 3173 3178 3180 3182 3187 3189 3190 3195 3197 3197 3199 3201 3204 3204 3204 3206 3207 3208 3210 3210 3212 3213 3214 3216 3217 3216 3216 3214 3214 3215 3216 3198 3190 3206 3212 3206 3207 3207 3207 3205
3156 3165 3166 3169 3177 3181 3172 3167 3165 3168 3175 3179 3181 3184 3185 3190 3195 3198 3197 3199 3201 3204 3205 3205 3206 3208 3209 3210 3212 3215 3217 3217 3218 3218 3219 3218 3216 3208 3213 3213 3213 3212 3211 3207 3204 3204 3203 3202 3200
3149 3165 3167 3169 3176 3182 3166 3166 3162 3166 3172 3176 3178 3183 3185 3189 3194 3196 3197 3200 3203 3204 3205 3206 3207 3208 3210 3210 3213 3216 3217 3217 3217 3218 3215 3216 3218 3216 3214 3213 3211 3208 3207 3204 3202 3200 3199 3199 3197
3148 3157 3159 3164 3172 3186 3181 3161 3159 3164 3170 3175 3179 3182 3185 3189 3192 3196 3199 3203 3204 3204 3205 3206 3208 3209 3210 3212 3215 3216 3219 3214 3216 3213 3212 3215 3216 3214 3212 3210 3207 3205 3202 3200 3199 3197 3196 3195 3193
3149 3151 3144 3153 3165 3175 3178 3161 3158 3166 3171 3175 3180 3182 3185 3189 3193 3197 3200 3202 3204 3204 3205 3207 3208 3209 3210 3211 3212 3214 3216 3214 3211 3209 3212 3213 3212 3210 3207 3205 3203 3201 3199 3198 3196 3195 3193 3192 3191